Regional Weather Roundup
Issued by NWS

Home | Current Version | Previous Version | Text Only | Print | Product List | Glossary Off
Versions: 1 2 3 4 5 6 7 8 9 10 11 12 13 14 15 16 17 18 19 20 21 22 23 24 25 26 27 28 29 30 31 32 33 34 35 36 37 38 39 40 41 42 43 44 45 46 47 48 49 50

000
ASUS45 KTFX 230110
RWRMT
MONTANA REGIONAL WEATHER ROUNDUP
NATIONAL WEATHER SERVICE GREAT FALLS MT
700 PM MDT FRI JUL 22 2016

NOTE: "FAIR" INDICATES FEW OR NO CLOUDS BELOW 12000 FEET WITH NO
SIGNIFICANT WEATHER AND/OR OBSTRUCTIONS TO VISIBILITY.

MTZ001>007-043-230200-
WEST OF THE DIVIDE

CITY           SKY/WX    TMP DP  RH WIND       PRES   REMARKS
KALISPELL      CLOUDY    68  43  40 N8        30.09S
MISSOULA       PTSUNNY   78  47  33 NW16G23   30.06R
BUTTE          SUNNY     79  40  24 N22G33    30.04R
MULLAN PASS    MOSUNNY   52  46  80 VRB6      30.23F
ANACONDA         N/A     81  39  22 W23G30    30.01R
DEER LODGE       N/A     77  43  29 NW18G28   30.04R
EUREKA           N/A     70  46  43 CALM      30.08F
HAMILTON         N/A     79  45  29 W14G21    30.03S
LIBBY            N/A     68  46  45 CALM      30.09F
PLAINS           N/A     73  46  38 W9        30.10F
RONAN            N/A     73  48  41 W8        30.13S
$$

MTZ008-052>055-230200-
SOUTHWEST MONTANA

CITY           SKY/WX    TMP DP  RH WIND       PRES   REMARKS
BOZEMAN        MOSUNNY   83  43  24 N17       29.88S
DILLON         SUNNY     83  25  12 W18       29.96S
W YELLOWSTONE  SUNNY     81  21  11 SW22G30   30.15F
ENNIS          SUNNY     91  12   5 W15G23    30.01R
THREE FORKS      N/A     90 N/A N/A N15       29.89R
TWIN BRIDGES     N/A     89  29  11 SW10      29.94S
$$

MTZ009-010-012-014-046-048-049-054-230200-
EAST SLOPES AND CENTRAL MONTANA

CITY           SKY/WX    TMP DP  RH WIND       PRES   REMARKS
CUT BANK         N/A     75  42  30 W31G40    29.96R
GREAT FALLS    SUNNY     86  24  10 W30G40    29.87R
MALMSTROM AFB  SUNNY     87  26  11 W26G36    29.86R
HELENA         SUNNY     86  39  19 W25G35    29.91R
CHOTEAU          N/A     81  39  22 W24       29.95R
CONRAD           N/A     78  49  36 W23       29.94S
$$

MTZ011-013-016-021-045-047-050-051-230200-
NORTH CENTRAL MONTANA

CITY           SKY/WX    TMP DP  RH WIND       PRES   REMARKS
HAVRE          CLOUDY    93  46  19 W32G43    29.71S
LEWISTOWN      CLOUDY    82  51  34 SW22G31   29.90R
N BAR RANCH      N/A     79  52  38 SW9       29.92S
CHINOOK          N/A     97  57  26 S7        29.69F HX  95
$$

MTZ017>020-022>027-061-062-230200-
NORTHEAST MONTANA

CITY           SKY/WX    TMP DP  RH WIND       PRES   REMARKS
GLASGOW        CLOUDY    85  59  41 E14       29.74F
JORDAN           N/A     90  55  30 W6        29.79R
SIDNEY         SUNNY     88  67  49 E16G22    29.80F HX  91
WOLF POINT     PTSUNNY   91  57  31 E13       29.74F
PLENTYWOOD       N/A     79  63  57 E16G24    29.84F
SCOBEY           N/A     85  64  49 E17       29.82F
$$

MTZ028>42-056>058-230200-
SOUTHCENTRAL AND SOUTHEAST MONTANA

CITY           SKY/WX    TMP DP  RH WIND       PRES   REMARKS
BAKER          CLOUDY    78  64  61 E17       29.87R
BILLINGS       MOSUNNY   92  42  17 S14G29    29.81F
LIVINGSTON     SUNNY     88  37  16 SW6       29.87F
MILES CITY     SUNNY    100  57  23 NE13      29.74F HX  99
FORSYTH          N/A     93  52  24 W3        29.76S HX  90
ROUNDUP          N/A     86  52  30 CALM      29.78F
$$

REGIONAL REPORTS...DAKOTAS

CITY           SKY/WX    TMP DP  RH WIND       PRES   REMARKS
WILLISTON      SUNNY     85  60  42 E21       29.85F
MINOT          SUNNY     81  64  56 E14G21    29.94S
DICKINSON      TSTM      74  67  78 SE20G26   29.92R
CROSBY           N/A     75  63  64 E12       29.91F
WATFORD CITY     N/A     84  61  45 E23G29    29.85F
BISMARCK       CLOUDY    76  67  73 SW13      29.99R THUNDER
GRAND FORKS    CLOUDY    81  64  56 E5        29.97R
FARGO          SUNNY     82  68  62 E7        29.92F
BUFFALO SD       N/A     87  55  33 SE20      29.79F
RAPID CITY     CLOUDY    84  57  39 SW18G28   29.92F
$$

REGIONAL REPORTS...WYOMING/IDAHO/WASHINGTON

CITY           SKY/WX    TMP DP  RH WIND       PRES   REMARKS
GILLETTE       CLOUDY    91  45  20 SE18      29.90F
SHERIDAN       CLOUDY    88  45  22 NW22      29.91R
BUFFALO WY     CLOUDY    91  38  15 N13G18    29.98F
CODY           CLOUDY    90  43  19 SW15      30.00F
YELLOWSTONE LA   N/A     75  25  15 SW8       30.29S
IDAHO FALLS    SUNNY     88  24  10 SW18G25   30.06F
SALMON         SUNNY     86  25  10 SW14G25   29.95R
BOISE          SUNNY     88  37  16 NW14      30.04F
SPOKANE        PTSUNNY   70  54  56 NW12      30.11S
$$

REGIONAL REPORTS...ALBERTA

CITY           SKY/WX    TMP DP  RH WIND       PRES   REMARKS
EDMONTON       MOSUNNY   79  52  38 W3        29.80F
CALGARY        PTSUNNY   66  48  52 S13       29.87F
LETHBRIDGE     MOSUNNY   70  52  52 W15G22    29.94S
MEDICINE HAT   TSTM      63  59  88 W30G43    29.89R
CARDSTON         N/A     70  43  37 W8G17       N/A
MILK RIVER       N/A     70  52  52 NW23G30     N/A
ONEFOUR          N/A     75  54  46 NW37G53     N/A
$$

REGIONAL REPORTS...SASKATCHEWAN

CITY           SKY/WX    TMP DP  RH WIND       PRES   REMARKS
SWIFT CURRENT  CLOUDY    73  61  64 E14G22    29.78F
REGINA         MOSUNNY   79  59  50 E14G25    29.87F
SASKATOON      LGT RAIN  73  59  60 E13       29.87F
CYPRESS HILLS    N/A     72  54  53 E2          N/A
VAL MARIE        N/A     82  59  44 SE21G29     N/A
ASSINIBOIA       N/A     77  59  53 S7          N/A
$$



USA.gov is the U.S. government's official web portal to all federal, state and local government web resources and services.